Location: Byszew
(52.1813°N, 19.2693°E)
Time: 23:11:51
(UTC+00:00)

Cosmos 2322 Rocket - Pass Details

Date: 01 July 2021
Orbit: 833 x 850 km, 71.0° (Epoch: 26 July)

Event Time Altitude Azimuth Distance (km) Brightness Sun altitude
Rises 21:34:10 0° 310° (NW) 3,424 6.4 -13.1°
Reaches altitude 10° 21:38:48 10° 344° (NNW) 2,485 6.1 -13.3°
Maximum altitude 21:40:30 11° 2° (N) 2,395 5.8 -13.4°
Drops below altitude 10° 21:42:12 10° 19° (NNE) 2,482 5.5 -13.5°
Sets 21:46:49 0° 54° (NE) 3,412 5.7 -13.6°
